Weather History for YPEA - January, 2014

Change the Weather History Date:

Monday, January 6, 2014

  Actual Average (YPPH) Record (YPPH)
Temperature  
Mean Temperature 84 °F -  
Max Temperature 105 °F 87 °F 104 °F (1998)
Min Temperature 63 °F 61 °F 50 °F (2002)
Cooling Degree Days 19    
Growing Degree Days 34 (Base 50)    
Moisture  
Dew Point 48 °F    
Average Humidity 30    
Maximum Humidity 77    
Minimum Humidity 8    
Precipitation  
Precipitation 0.00 in - - ()
Sea Level Pressure  
Sea Level Pressure 29.83 in    
Wind  
Wind Speed 11 mph ()    
Max Wind Speed 21 mph    
Max Gust Speed 32 mph    
Visibility 6.2 miles    
Events      
Averages and records for this station are not official NWS values.
T = Trace of Precipitation, MM = Missing Value Source: Averaged Metar Reports

Daily Weather History Graph

Daily Weather History Graph

Search for Another Location

Airport or City:

Trip Planner

Search our weather history database for the weather conditions in past years. The results will help you decide how hot, cold, wet, or windy it might be!

Date:

Astronomy

Jan. 06, 2014 Rise Set
Actual Time 5:17 AM AWST 7:25 PM AWST
Civil Twilight 4:49 AM AWST 7:53 PM AWST
Nautical Twilight 4:16 AM AWST 8:26 PM AWST
Astronomical Twilight 3:39 AM AWST 9:03 PM AWST
Moon 10:30 AM AWST (1/6) 10:51 PM AWST (1/6)
Length of Visible Light 15h 03m
Length of Day
14h 07m
Waxing Crescent, 29% of the Moon is Illuminated
Jan 6
Waxing Crescent
Jan 8
First Quarter
Jan 16
Full
Jan 24
Last Quarter
Jan 31
New

Hourly Weather History & Observations

Time (AWST) Temp. Dew Point Humidity Pressure Visibility Wind Dir Wind Speed Gust Speed Precip Events Conditions
12:00 AM 65 °F 57 °F 68% 29.90 in - South 6.9 mph - -  
12:00 AM 64.4 °F 57.2 °F 77% 29.89 in 6.2 mi South 6.9 mph - N/A   Unknown
12:57 AM 73.4 °F 41.0 °F 31% 29.86 in 6.2 mi SW 4.6 mph - N/A   Unknown
1:00 AM 75.2 °F 41.0 °F 29% 29.86 in 6.2 mi SSW 5.8 mph - N/A   Unknown
1:51 AM 75.2 °F 42.8 °F 31% 29.83 in 6.2 mi East 17.3 mph 29.9 mph N/A   Unknown
2:04 AM 75.2 °F 42.8 °F 31% 29.83 in 6.2 mi East 19.6 mph 32.2 mph N/A   Unknown
3:00 AM 73 °F 44 °F 24% 29.83 in - East 20.7 mph - -  
3:00 AM 73.4 °F 44.6 °F 36% 29.83 in 6.2 mi East 20.7 mph - N/A   Unknown
4:00 AM 71.6 °F 44.6 °F 38% 29.83 in 6.2 mi East 19.6 mph - N/A   Unknown
4:32 AM 71.6 °F 44.6 °F 38% 29.83 in 6.2 mi East 19.6 mph 31.1 mph N/A   Unknown
5:00 AM 71.6 °F 44.6 °F 38% 29.86 in 6.2 mi East 15.0 mph 29.9 mph N/A   Unknown
6:00 AM 70 °F 45 °F 30% 29.88 in - South 8.1 mph - -  
6:00 AM 69.8 °F 44.6 °F 40% 29.89 in 6.2 mi South 8.1 mph - N/A   Unknown
7:00 AM 75.2 °F 46.4 °F 36% 29.89 in 6.2 mi SSE 4.6 mph - N/A   Unknown
8:00 AM 80.6 °F 48.2 °F 32% 29.86 in 6.2 mi ENE 5.8 mph - N/A   Unknown
8:34 AM 84.2 °F 48.2 °F 29% 29.86 in 6.2 mi ENE 19.6 mph - N/A   Unknown
9:00 AM 87 °F 49 °F 18% 29.86 in - NNE 8.1 mph - -  
9:00 AM 87.8 °F 50.0 °F 27% 29.86 in 6.2 mi NNE 8.1 mph - N/A   Unknown
10:00 AM 89.6 °F 48.2 °F 24% 29.86 in 6.2 mi ENE 11.5 mph - N/A   Unknown
11:00 AM 95.0 °F 48.2 °F 20% 29.83 in 6.2 mi NNE 10.4 mph - N/A   Unknown
12:00 PM 99 °F 47 °F 10% 29.82 in - East 12.7 mph - -  
12:00 PM 98.6 °F 46.4 °F 17% 29.80 in 6.2 mi East 12.7 mph - N/A   Unknown
1:00 PM 100.4 °F 44.6 °F 15% 29.80 in 6.2 mi SW 6.9 mph 18.4 mph N/A   Unknown
2:00 PM 104.0 °F 44.6 °F 13% 29.77 in 6.2 mi West 5.8 mph - N/A   Unknown
3:00 PM 103 °F 47 °F 8% 29.75 in - WSW 19.6 mph - -  
3:00 PM 104.0 °F 46.4 °F 14% 29.74 in 6.2 mi WSW 19.6 mph - N/A   Unknown
4:00 PM 102.2 °F 46.4 °F 15% 29.74 in 6.2 mi WSW 18.4 mph - N/A   Unknown
5:00 PM 96.8 °F 48.2 °F 19% 29.74 in 6.2 mi SW 18.4 mph - N/A   Unknown
6:00 PM 93 °F 48 °F 13% 29.77 in - SSW 17.3 mph - -  
6:00 PM 93.2 °F 48.2 °F 21% 29.77 in 6.2 mi SSW 17.3 mph - N/A   Unknown
7:00 PM 86.0 °F 51.8 °F 31% 29.80 in 6.2 mi SW 12.7 mph - N/A   Unknown
8:00 PM 80.6 °F 51.8 °F 37% 29.83 in 6.2 mi SSW 13.8 mph - N/A   Unknown
9:00 PM 77 °F 53 °F 32% 29.82 in - SW 5.8 mph - -  
9:00 PM 77.0 °F 53.6 °F 44% 29.83 in 6.2 mi SW 5.8 mph - N/A   Unknown
10:00 PM 73.4 °F 51.8 °F 47% 29.83 in 6.2 mi WSW 4.6 mph - N/A   Unknown
11:00 PM 71.6 °F 57.2 °F 60% 29.83 in 6.2 mi NNW 4.6 mph - N/A   Unknown